Regional Weather Roundup
Issued by NWS

Home | Current Version | Previous Version | Text Only | Print | Product List | Glossary On
Versions: 1 2 3 4 5 6 7 8 9 10 11 12 13 14 15 16 17 18 19 20 21 22 23 24 25 26 27 28 29 30 31 32 33 34 35 36 37 38 39 40 41 42 43 44 45 46 47 48 49 50
000
ASUS43 KLOT 290609
RWRIL

ILLINOIS REGIONAL WEATHER ROUNDUP
NATIONAL WEATHER SERVICE CHICAGO/ROMEOVILLE IL
100 AM CDT MON MAY 29 2017

NOTE: "FAIR" INDICATES FEW OR NO CLOUDS BELOW 12,000 FEET WITH NO
SIGNIFICANT WEATHER AND/OR OBSTRUCTIONS TO VISIBILITY.

* THESE STATIONS ARE NOT UNDER NWS QUALITY CONTROL. THEY ALSO MAY NOT
  REPORT WEATHER SUCH AS PRECIPITATION OR FOG.

ILZ001-002-007-009-015-016-024-290700-
NORTHWEST ILLINOIS

CITY           SKY/WX    TMP DP  RH WIND       PRES   REMARKS
MOLINE         CLEAR     62  50  64 SW5       29.80R
6HR MIN TEMP:  61; 6HR MAX TEMP:  76;

SAVANNA*       CLEAR     56  54  95 CALM      29.77F
$$

ILZ003-004-008-010-011-017-018-290700-
NORTH CENTRAL ILLINOIS

CITY           SKY/WX    TMP DP  RH WIND       PRES   REMARKS
ROCKFORD       MOCLDY    58  52  80 S3        29.77S
6HR MIN TEMP:  57; 6HR MAX TEMP:  74;

FREEPORT*      CLEAR     58  49  72 SW6       29.78S
ROCHELLE*      CLOUDY    59  54  84 S5        29.79S
DE KALB*       CLOUDY    63  50  62 SW7       29.79S
PERU*          MOCLDY    61  52  71 SW8       29.79S
$$

ILZ005-006-012>014-019>023-290700-
NORTHEAST ILLINOIS

CITY           SKY/WX    TMP DP  RH WIND       PRES   REMARKS
CHICAGO-OHARE  PTCLDY    63  49  60 SW5       29.76R
6HR MIN TEMP:  61; 6HR MAX TEMP:  75;

CHICAGO-MIDWAY MOCLDY    65  50  58 SW6       29.77R
6HR MIN TEMP:  64; 6HR MAX TEMP:  76;

AURORA         CLOUDY    61  53  75 SW3       29.78S
6HR MIN TEMP:  58; 6HR MAX TEMP:  75;

LANSING*       MOCLDY    57  52  84 S5        29.79R
JOLIET*        CLOUDY    60  56  87 CALM      29.79R
WAUKEGAN       PTCLDY    58  49  72 SW5       29.74S
6HR MIN TEMP:  53; 6HR MAX TEMP:  73;

DUPAGE AIRPORT MOCLDY    59  54  83 S3        29.76S
6HR MIN TEMP:  58; 6HR MAX TEMP:  74;

KANKAKEE*      MOCLDY    59  53  79 CALM      29.82R
WHEELING       CLOUDY    61  50  67 CALM      29.77R
6HR MIN TEMP:  58; 6HR MAX TEMP:  74;

MORRIS*        CLOUDY    62  50  65 CALM      29.78S
ROMEOVILLE*    CLOUDY    62  55  78 SW5       29.79R
NORTHERLY ISL    N/A     66  47  50 SW3         N/A
$$

LMZ740>746-290700-
SOUTHERN LAKE MICHIGAN

STATION/POSITION SKY/WX   TEMP    WIND        PRES    VSBY  WAVE
                          AIR SEA DIR/SP/G                  HT/PER
                          (F)     (DEG/KT/KT) (MB)    (MI)  (FT/S)
SOUTHERN BUOY              53 47  270/ 10/ 10 1006.8
WILMETTE HARBOR            59 55  220/  6/  6   N/A           0
HARRISON CRIB              70     240/  6/  7   N/A
BURNHAM HARBOR             66     190/  4/  5   N/A
CALUMET HARBOR                    210/  4/  5 1007.8R
BURNS HARBOR               64     190/  6/  8 1008.8S
MICHIGAN CITY              64     190/  7/  7   N/A
MICHIGAN CITY 6N           61 58  210/  6/  8   N/A           0
ST. JOSEPH                 61 59  230/  8/  8 1007.9          1
$$

ILZ025>027-034>036-040-047-049-050-058-095>099-290700-
WEST-CENTRAL ILLINOIS

CITY           SKY/WX    TMP DP  RH WIND       PRES   REMARKS
QUINCY         MOCLDY    62  52  69 SW6       29.86R
GALESBURG*     PTCLDY    61  51  67 W6          N/A
MACOMB*        MOCLDY    64  51  61 W8        29.85S
JACKSONVILLE*  CLOUDY    64  57  77 SW7       29.85S
PITTSFIELD*    CLOUDY    66  56  70 SW6       29.88S
$$

ILZ028>032-037-038-041>044-048-051>054-059>061-290700-
CENTRAL ILLINOIS

CITY           SKY/WX    TMP DP  RH WIND       PRES   REMARKS
PONTIAC        MOCLDY    66  52  59 S8        29.82S
BLOOMINGTON    CLOUDY    64  53  67 SW12      29.83F
DECATUR        CLEAR     61  54  77 SW7       29.85F
PEORIA         CLOUDY    64  52  64 SW5       29.82R
6HR MIN TEMP:  61; 6HR MAX TEMP:  77;

LACON*         CLOUDY    61  54  78 SW6       29.79S
LINCOLN*       PTCLDY    65  56  71 SW3       29.84F
SPRINGFIELD    PTCLDY    64  58  80 SW5       29.84F
6HR MIN TEMP:  62; 6HR MAX TEMP:  80; 6HR PCP: TRACE;

TAYLORVILLE    CLEAR     61  56  83 SW5       29.86S
6HR MIN TEMP:  60; 6HR MAX TEMP:  77;

$$

ILZ033-039-045-046-055>057-062-063-290700-
EAST-CENTRAL ILLINOIS

CITY           SKY/WX    TMP DP  RH WIND       PRES   REMARKS
CHAMPAIGN      CLEAR     63  54  72 SW9       29.84F
RANTOUL*       CLEAR     64  56  75 SW8       29.83F
MATTOON        CLEAR     65  55  70 SW7       29.85F
PARIS*         CLEAR     62  56  80 SW7       29.86F
$$

ILZ079-100>102-290700-
SOUTHWEST ILLINOIS

CITY           SKY/WX    TMP DP  RH WIND       PRES   REMARKS
ALTON          CLEAR     61  56  84 SW6       29.89S
BELLEVILLE     CLEAR     64  57  77 SW5       29.90S
CAHOKIA*       CLEAR     66  57  72 SW3       29.89S
SPARTA*        PTCLDY    66  57  74 SW6       29.92S
$$

ILZ064>066-069>071-074>076-080>082-084>086-088>090-092>094-290700-
SOUTH-CENTRAL ILLINOIS

CITY           SKY/WX    TMP DP  RH WIND       PRES   REMARKS
CARBONDALE     CLEAR     61  61 100 CALM      29.91R
6HR MIN TEMP:  60; 6HR MAX TEMP:  75;

CAIRO*         CLOUDY    65  64  97 CALM      29.92S
EFFINGHAM*     CLEAR     61  58  89 CALM      29.89S
MARION         CLOUDY    63  63 100 CALM      29.92S
MT. VERNON       N/A     59  59 100 CALM      29.90S FOG
CENTRALIA*     CLEAR     64  59  84 SW7       29.89R
SALEM*         CLEAR     64  57  77 CALM      29.89R
METROPOLIS*    FOG       63  63  99 CALM      29.92S VSB 1/4
$$

ILZ067-068-072-073-078-083-087-091-290700-
SOUTHEAST ILLINOIS

CITY           SKY/WX    TMP DP  RH WIND       PRES   REMARKS
LAWRENCEVILLE  CLEAR     65  59  81 N6        29.88R
FLORA*         CLEAR     64  58  80 SW5       29.89S
FAIRFIELD*     CLEAR     60  60  99 CALM      29.89R
HARRISBURG*    CLEAR     63  62  98 SW3       29.90S
ROBINSON*      PTCLDY    63  56  79 W6        29.87F
CARMI*         CLEAR     62  61  98 W3        29.89S
$$

ABBREVIATIONS USED IN REMARKS
   TC - TEMPERATURE IN CELSIUS
  WCI - WIND CHILL INDEX
   HX - HEAT INDEX
  VSB - VISIBILITY
$$





USA.gov is the U.S. government's official web portal to all federal, state and local government web resources and services.